VCV1187 SKBO-SMJP

Flight info

Callsign VCV1187
Flight time N/A
Altitude 36000
Route USIDO3C OSOVO DCT KEXAN UM662 DADMU UP549 UGVIR
Aircraft A343/H-SDE2E3FGHIJ4J5M1RWXY/LB1D1

Departure

Time 2026-05-04 14:28
Airport El Dorado International Airport (SKBO)

Arrival

Time N/A
Airport Johan Adolf Pengel International Airport (SMJP)
Time Latitude Longitude Altitude Speed Heading
2026-05-04 13:56 4.70042 -74.14375 8377 ft 0 kts 36°
2026-05-04 14:18 4.70033 -74.14382 8374 ft 4 kts 34°
2026-05-04 14:18 4.69985 -74.14406 8374 ft 4 kts 16°
2026-05-04 14:19 4.69939 -74.14403 8374 ft 2 kts 307°
2026-05-04 14:19 4.69938 -74.14402 8374 ft 0 kts 306°
2026-05-04 14:21 4.69969 -74.14444 8373 ft 14 kts 306°
2026-05-04 14:21 4.70027 -74.14522 8372 ft 13 kts 307°
2026-05-04 14:21 4.70058 -74.14570 8372 ft 2 kts 282°
2026-05-04 14:22 4.70035 -74.14605 8374 ft 15 kts 222°
2026-05-04 14:22 4.69939 -74.14679 8373 ft 18 kts 217°
2026-05-04 14:22 4.69845 -74.14750 8375 ft 16 kts 217°
2026-05-04 14:22 4.69765 -74.14809 8377 ft 8 kts 210°
2026-05-04 14:23 4.69678 -74.14738 8372 ft 20 kts 128°
2026-05-04 14:23 4.69618 -74.14660 8373 ft 19 kts 127°
2026-05-04 14:24 4.69567 -74.14592 8372 ft 17 kts 127°
2026-05-04 14:24 4.69563 -74.14587 8373 ft 17 kts 127°
2026-05-04 14:24 4.69538 -74.14554 8372 ft 16 kts 127°
2026-05-04 14:24 4.69479 -74.14475 8374 ft 18 kts 127°
2026-05-04 14:25 4.69409 -74.14383 8372 ft 16 kts 127°
2026-05-04 14:25 4.69291 -74.14228 8375 ft 13 kts 128°
2026-05-04 14:25 4.69239 -74.14161 8373 ft 12 kts 127°
2026-05-04 14:26 4.69190 -74.14098 8373 ft 11 kts 131°
2026-05-04 14:26 4.69147 -74.14086 8373 ft 3 kts 201°
2026-05-04 14:26 4.69087 -74.14126 8373 ft 18 kts 218°
2026-05-04 14:26 4.69028 -74.14220 8377 ft 14 kts 277°
2026-05-04 14:27 4.69076 -74.14302 8373 ft 14 kts 306°
2026-05-04 14:27 4.69208 -74.14476 8371 ft 62 kts 307°
2026-05-04 14:27 4.69621 -74.15023 8373 ft 134 kts 307°
2026-05-04 14:27 4.70321 -74.15945 8452 ft 186 kts 309°
2026-05-04 14:28 4.71104 -74.16957 9490 ft 181 kts 308°
2026-05-04 14:28 4.71965 -74.17965 10130 ft 203 kts 320°
2026-05-04 14:28 4.73294 -74.18595 10604 ft 226 kts 356°
2026-05-04 14:28 4.74916 -74.18331 11185 ft 249 kts 24°
2026-05-04 14:29 4.78232 -74.16848 12963 ft 272 kts 26°
2026-05-04 14:29 4.81779 -74.15276 13928 ft 283 kts 27°
2026-05-04 14:30 4.83456 -74.14220 13989 ft 279 kts 46°
2026-05-04 14:30 4.84525 -74.12628 14001 ft 279 kts 71°
2026-05-04 14:30 4.84905 -74.08309 13970 ft 351 kts 90°
2026-05-04 14:31 4.84890 -74.05824 13949 ft 359 kts 91°
2026-05-04 14:31 4.84880 -74.00833 13961 ft 357 kts 90°
2026-05-04 14:32 4.84898 -73.95876 13963 ft 354 kts 90°
2026-05-04 14:32 4.84910 -73.93404 13966 ft 354 kts 90°
2026-05-04 14:32 4.84923 -73.90936 13978 ft 354 kts 90°
2026-05-04 14:32 4.84811 -73.88474 13968 ft 355 kts 101°
2026-05-04 14:33 4.83878 -73.86201 13999 ft 355 kts 124°
2026-05-04 14:33 4.82119 -73.84452 14373 ft 360 kts 140°
2026-05-04 14:33 4.80116 -73.82916 15181 ft 364 kts 141°
2026-05-04 14:33 4.78097 -73.81345 16009 ft 370 kts 140°
2026-05-04 14:34 4.76074 -73.79721 16844 ft 375 kts 139°
2026-05-04 14:34 4.74038 -73.78045 17599 ft 383 kts 138°
2026-05-04 14:34 4.72108 -73.76173 18356 ft 389 kts 130°
2026-05-04 14:34 4.70503 -73.73980 19144 ft 392 kts 119°
2026-05-04 14:35 4.69317 -73.71508 19859 ft 394 kts 108°
2026-05-04 14:35 4.68611 -73.68857 20642 ft 395 kts 99°
2026-05-04 14:35 4.68330 -73.66099 21286 ft 401 kts 92°
2026-05-04 14:35 4.68238 -73.63283 21878 ft 406 kts 90°
2026-05-04 14:36 4.68236 -73.60440 22584 ft 410 kts 89°
2026-05-04 14:36 4.68265 -73.57563 23202 ft 416 kts 89°
2026-05-04 14:36 4.68296 -73.54690 23874 ft 419 kts 89°
2026-05-04 14:36 4.68315 -73.51758 24425 ft 423 kts 89°
2026-05-04 14:37 4.68321 -73.48795 24872 ft 428 kts 89°
2026-05-04 14:37 4.68315 -73.45804 25430 ft 430 kts 90°
2026-05-04 14:37 4.68302 -73.42785 25956 ft 434 kts 90°
2026-05-04 14:37 4.68285 -73.39744 26503 ft 438 kts 90°
2026-05-04 14:38 4.68267 -73.36680 26998 ft 441 kts 90°
2026-05-04 14:38 4.68249 -73.33592 27517 ft 444 kts 90°
2026-05-04 14:38 4.68231 -73.30490 28051 ft 447 kts 90°
2026-05-04 14:38 4.68213 -73.27348 28492 ft 452 kts 90°
2026-05-04 14:39 4.68196 -73.24171 28936 ft 457 kts 90°
2026-05-04 14:39 4.68178 -73.20989 29379 ft 460 kts 90°
2026-05-04 14:39 4.68160 -73.17764 29810 ft 464 kts 90°
2026-05-04 14:40 4.68124 -73.11264 30655 ft 469 kts 90°
2026-05-04 14:40 4.68106 -73.08019 30978 ft 472 kts 90°
2026-05-04 14:40 4.68087 -73.04726 31356 ft 475 kts 90°
2026-05-04 14:40 4.68068 -73.01406 31735 ft 477 kts 90°
2026-05-04 14:41 4.68049 -72.98079 32246 ft 475 kts 90°
2026-05-04 14:41 4.68030 -72.94768 32716 ft 475 kts 90°
2026-05-04 14:41 4.67991 -72.88123 33521 ft 477 kts 91°
2026-05-04 14:42 4.67951 -72.81483 34445 ft 475 kts 91°
2026-05-04 14:42 4.67931 -72.78174 34846 ft 474 kts 91°
2026-05-04 14:42 4.67910 -72.74877 35280 ft 472 kts 91°
2026-05-04 14:43 4.67890 -72.71581 35561 ft 474 kts 91°
2026-05-04 14:43 4.67870 -72.68284 35613 ft 471 kts 91°
2026-05-04 14:43 4.67829 -72.61785 35610 ft 468 kts 91°
2026-05-04 14:44 4.67787 -72.55248 35615 ft 470 kts 90°
2026-05-04 14:44 4.67744 -72.48678 35603 ft 472 kts 90°
2026-05-04 14:45 4.67701 -72.42100 35605 ft 472 kts 90°
2026-05-04 14:45 4.67658 -72.35523 35594 ft 472 kts 90°
2026-05-04 14:46 4.67613 -72.28949 35592 ft 472 kts 91°
2026-05-04 14:46 4.67568 -72.22372 35589 ft 471 kts 90°
2026-05-04 14:47 4.67523 -72.15806 35587 ft 470 kts 90°
2026-05-04 14:47 4.67477 -72.09252 35583 ft 470 kts 90°
2026-05-04 14:48 4.67430 -72.02700 35589 ft 470 kts 90°
2026-05-04 14:48 4.67383 -71.96143 35592 ft 470 kts 90°
2026-05-04 14:49 4.67335 -71.89593 35582 ft 470 kts 90°
2026-05-04 14:49 4.67287 -71.83055 35588 ft 468 kts 90°
2026-05-04 14:50 4.67238 -71.76534 35588 ft 468 kts 90°
2026-05-04 14:50 4.67189 -71.70060 35586 ft 467 kts 90°
2026-05-04 14:51 4.67139 -71.63545 35592 ft 468 kts 90°
2026-05-04 14:51 4.67088 -71.57013 35590 ft 468 kts 90°
2026-05-04 14:52 4.67046 -71.51589 35589 ft 469 kts 91°
2026-05-04 14:52 4.66994 -71.45045 35599 ft 469 kts 90°
2026-05-04 14:53 4.66941 -71.38493 35593 ft 470 kts 91°
2026-05-04 14:53 4.66888 -71.31977 35590 ft 470 kts 90°
2026-05-04 14:54 4.66834 -71.25431 35591 ft 470 kts 91°
2026-05-04 14:54 4.66780 -71.18878 35602 ft 470 kts 91°
2026-05-04 14:55 4.66725 -71.12330 35601 ft 470 kts 90°
2026-05-04 14:55 4.66669 -71.05773 35595 ft 470 kts 91°
2026-05-04 14:56 4.66613 -70.99226 35594 ft 469 kts 90°
2026-05-04 14:56 4.66556 -70.92673 35606 ft 470 kts 91°
2026-05-04 14:57 4.66499 -70.86126 35597 ft 470 kts 91°
2026-05-04 14:57 4.66441 -70.79627 35605 ft 469 kts 91°
2026-05-04 14:58 4.66383 -70.73091 35597 ft 469 kts 91°
2026-05-04 14:58 4.66324 -70.66556 35595 ft 469 kts 91°
2026-05-04 14:59 4.66264 -70.60008 35603 ft 469 kts 91°
2026-05-04 15:00 4.66173 -70.50212 35595 ft 469 kts 91°
2026-05-04 15:00 4.66112 -70.43669 35597 ft 469 kts 91°
2026-05-04 15:01 4.66469 -70.37143 35592 ft 470 kts 80°
2026-05-04 15:01 4.67336 -70.33984 35606 ft 471 kts 70°
2026-05-04 15:01 4.70480 -70.28217 35604 ft 474 kts 58°
2026-05-04 15:02 4.74209 -70.22765 35588 ft 474 kts 55°
2026-05-04 15:02 4.77993 -70.17393 35603 ft 474 kts 56°
2026-05-04 15:03 4.81767 -70.11983 35589 ft 473 kts 56°
2026-05-04 15:03 4.85519 -70.06552 35587 ft 473 kts 56°
2026-05-04 15:04 4.89260 -70.01117 35598 ft 473 kts 56°
2026-05-04 15:04 4.93006 -69.95674 35581 ft 473 kts 56°
2026-05-04 15:05 4.96748 -69.90239 35596 ft 473 kts 56°
2026-05-04 15:05 5.00489 -69.84804 35583 ft 473 kts 56°
2026-05-04 15:06 5.04203 -69.79409 35580 ft 473 kts 56°
2026-05-04 15:07 5.09813 -69.71254 35596 ft 473 kts 56°
2026-05-04 15:07 5.13552 -69.65818 35596 ft 473 kts 57°
2026-05-04 15:08 5.17292 -69.60379 35579 ft 474 kts 56°
2026-05-04 15:08 5.21036 -69.54933 35596 ft 474 kts 56°
2026-05-04 15:09 5.24780 -69.49487 35581 ft 473 kts 56°
2026-05-04 15:09 5.28516 -69.44049 35584 ft 473 kts 56°
2026-05-04 15:10 5.34083 -69.35945 37191 ft 473 kts 56°
2026-05-04 15:10 5.37856 -69.30445 35570 ft 480 kts 57°
2026-05-04 15:11 5.39745 -69.27694 35588 ft 478 kts 57°
2026-05-04 15:11 5.43467 -69.22276 37149 ft 479 kts 56°
2026-05-04 15:11 5.45367 -69.19508 35550 ft 483 kts 57°
2026-05-04 15:12 5.47277 -69.16724 35579 ft 484 kts 57°
2026-05-04 15:12 5.51078 -69.11189 35599 ft 480 kts 56°
2026-05-04 15:13 5.54861 -69.05674 35582 ft 479 kts 57°
2026-05-04 15:13 5.58639 -69.00164 35583 ft 479 kts 57°
2026-05-04 15:14 5.62392 -68.94690 35748 ft 478 kts 56°
2026-05-04 15:14 5.64275 -68.91943 35953 ft 478 kts 56°
2026-05-04 15:14 5.66160 -68.89192 36017 ft 480 kts 57°
2026-05-04 15:15 5.69941 -68.83674 36017 ft 478 kts 56°
2026-05-04 15:15 5.73715 -68.78165 36015 ft 478 kts 56°
2026-05-04 15:16 5.74824 -68.76546 36015 ft 478 kts 56°
2026-05-04 15:17 5.75216 -68.75974 36015 ft 478 kts 56°
2026-05-04 15:17 5.80849 -68.67747 36015 ft 478 kts 56°
2026-05-04 15:18 5.84615 -68.62245 36015 ft 478 kts 56°
2026-05-04 15:19 5.90267 -68.53985 36014 ft 478 kts 56°
2026-05-04 15:19 5.95935 -68.45697 36012 ft 480 kts 56°
2026-05-04 15:20 5.99720 -68.40162 36012 ft 481 kts 57°
2026-05-04 15:20 6.03502 -68.34629 36012 ft 481 kts 56°
2026-05-04 15:21 6.07288 -68.29088 36013 ft 481 kts 56°
2026-05-04 15:22 6.11168 -68.23410 36013 ft 481 kts 56°
2026-05-04 15:22 6.12456 -68.21524 36012 ft 481 kts 56°
2026-05-04 15:23 6.16279 -68.16062 36009 ft 481 kts 51°
2026-05-04 15:23 6.19213 -68.12637 36009 ft 481 kts 49°
2026-05-04 15:24 6.27514 -68.03411 36009 ft 481 kts 48°
2026-05-04 15:25 6.30741 -67.99842 36010 ft 481 kts 48°